GW0870 Weather Reports


time (UTC)temp
C
wind
direction
speed
KPH
gust
KPH
rain 1hr
cm
rain 24hr
cm
rain mn
cm
humidity
%
barometer
mb
20260508084547 9 0 0.0 0.0 0.00 0.00 0.00 94 1015.1
20260508083048 10 0 0.0 0.0 0.00 0.00 0.00 94 1015.2
20260508081548 10 0 0.0 1.6 0.00 0.00 0.00 94 1015.1
20260508080049 10 0 0.0 0.0 0.00 0.00 0.00 94 1014.9
20260508074544 10 0 0.0 1.6 0.00 0.00 0.00 95 1014.8
20260508073048 10 0 0.0 0.0 0.00 0.00 0.00 95 1014.7
20260508071542 10 0 0.0 0.0 0.00 0.00 0.00 95 1014.7
20260508070041 10 0 0.0 0.0 0.00 0.00 0.00 94 1014.6
20260508064603 10 0 0.0 0.0 0.00 0.00 0.00 94 1014.5
20260508063048 10 0 0.0 0.0 0.00 0.00 0.00 94 1014.5
20260508061550 11 0 0.0 0.0 0.00 0.00 0.00 94 1014.5
20260508060049 11 0 0.0 0.0 0.00 0.00 0.00 94 1014.6
20260508054612 11 0 0.0 0.0 0.00 0.00 0.00 94 1014.5
20260508053047 11 0 0.0 0.0 0.00 0.00 0.00 94 1014.4
20260508051549 11 0 0.0 0.0 0.00 0.00 0.00 94 1014.4
20260508050050 11 0 0.0 0.0 0.00 0.00 0.00 94 1014.3
20260508044547 11 0 0.0 0.0 0.00 0.00 0.00 94 1014.2
20260508043054 11 0 0.0 0.0 0.00 0.00 0.00 94 1014.0
20260508041547 11 0 0.0 0.0 0.00 0.00 0.00 93 1014.1
20260508040057 12 0 0.0 0.0 0.00 0.00 0.00 93 1013.8
20260508034549 12 0 0.0 0.0 0.00 0.00 0.00 93 1013.8
20260508033045 12 0 0.0 0.0 0.00 0.00 0.00 93 1014.0
20260508031556 12 0 0.0 1.6 0.00 0.00 0.00 93 1013.9
20260508030052 12 0 0.0 0.0 0.00 0.00 0.00 93 1013.7
20260508024544 12 0 0.0 0.0 0.00 0.05 0.00 92 1013.5
20260508023050 12 0 0.0 0.0 0.00 0.05 0.00 93 1013.4
20260508021541 12 0 0.0 0.0 0.00 0.05 0.00 92 1013.1
20260508020048 13 0 0.0 0.0 0.00 0.05 0.00 92 1012.9
20260508014548 13 0 0.0 0.0 0.00 0.33 0.00 92 1012.7
20260508013042 13 0 0.0 0.0 0.00 0.33 0.00 92 1012.7
20260508011554 13 0 0.0 1.6 0.00 0.33 0.00 91 1012.2
20260508010046 13 0 0.0 1.6 0.00 0.33 0.00 91 1011.9
20260508004546 13 0 0.0 3.2 0.00 0.41 0.00 90 1011.5
20260508003044 13 0 0.0 6.4 0.00 0.41 0.00 89 1011.4
20260508001547 14 0 0.0 6.4 0.00 0.41 0.00 89 1010.9
20260508000053 14 0 0.0 1.6 0.00 0.41 0.00 88 1010.4
20260507234548 15 57 0.0 8.0 0.00 0.41 0.00 88 1010.4
20260507233044 15 0 1.6 9.7 0.00 0.41 0.00 88 1010.2
20260507231546 15 0 0.0 11.3 0.00 0.41 0.00 89 1009.9
20260507230051 15 0 0.0 4.8 0.00 0.41 0.00 89 1009.9
20260507224551 15 0 1.6 8.0 0.00 0.41 0.00 89 1009.7
20260507223048 15 352 0.0 16.1 0.00 0.41 0.00 89 1009.6
20260507221544 15 37 1.6 9.7 0.00 0.41 0.00 88 1009.6
20260507220042 16 62 0.0 19.3 0.00 0.41 0.00 87 1009.0
20260507214545 16 346 4.8 17.7 0.00 0.41 0.00 85 1008.7
20260507213048 17 20 0.0 17.7 0.00 0.41 0.00 85 1007.8
20260507211556 18 85 4.8 22.5 0.00 0.41 0.00 79 1007.7
20260507210049 19 30 4.8 19.3 0.00 0.41 0.00 78 1008.0
20260507204548 21 280 1.6 19.3 0.00 0.41 0.00 75 1007.7
20260507203043 25 0 0.0 6.4 0.00 0.41 0.00 67 1007.4
20260507201544 24 206 3.2 8.0 0.00 0.41 0.00 66 1007.0
20260507200045 25 147 3.2 12.9 0.00 0.41 0.00 62 1007.1
20260507194544 24 233 3.2 9.7 0.00 0.41 0.00 67 1007.5
20260507193053 23 194 3.2 12.9 0.00 0.41 0.00 73 1007.5
20260507191544 23 270 4.8 11.3 0.00 0.41 0.00 73 1007.7
20260507190047 23 140 4.8 11.3 0.00 0.41 0.00 74 1007.9
20260507184538 22 260 1.6 8.0 0.00 0.41 0.00 76 1007.9
20260507183049 22 146 3.2 9.7 0.00 0.41 0.00 76 1007.9
20260507181549 21 103 1.6 8.0 0.00 0.41 0.00 79 1008.3
20260507180044 22 248 1.6 9.7 0.00 0.41 0.00 83 1008.7
20260507174601 21 238 1.6 9.7 0.00 0.66 0.00 82 1008.9
20260507173048 21 0 0.0 3.2 0.00 0.66 0.00 88 1008.7
20260507171550 20 211 0.0 9.7 0.00 0.66 0.00 88 1009.0
20260507170134 20 0 1.6 8.0 0.00 0.66 0.00 89 1009.2
20260507164553 20 196 0.0 3.2 0.00 0.66 0.00 91 1009.0
20260507163052 20 221 0.0 1.6 0.00 0.66 0.00 91 1009.1
20260507161552 19 205 1.6 4.8 0.00 0.66 0.00 92 1009.8
20260507160110 19 0 0.0 1.6 0.00 0.66 0.00 93 1008.7
20260507154548 19 86 0.0 1.6 0.00 0.66 0.00 93 1008.6
20260507153047 18 0 0.0 1.6 0.00 0.66 0.00 94 1008.4
20260507151557 18 0 0.0 1.6 0.00 0.66 0.00 94 1009.1
20260507150043 18 0 0.0 4.8 0.00 0.66 0.00 94 1009.3
20260507144548 18 0 0.0 1.6 0.00 0.66 0.00 94 1010.1
20260507143049 18 229 1.6 6.4 0.00 0.66 0.00 94 1010.1
20260507141547 18 220 0.0 3.2 0.00 0.66 0.00 94 1009.8
20260507140048 18 223 0.0 0.0 0.00 0.66 0.00 95 1009.3
20260507134550 17 229 0.0 4.8 0.00 0.66 0.00 95 1009.3
20260507133056 17 134 0.0 1.6 0.00 0.66 0.00 95 1009.2
20260507131612 17 0 0.0 0.0 0.00 0.66 0.00 95 1009.4
20260507130050 17 0 0.0 1.6 0.00 0.66 0.00 94 1009.5
20260507124600 17 0 0.0 1.6 0.00 0.66 0.00 95 1010.0
20260507123051 17 0 0.0 6.4 0.00 0.66 0.00 95 1010.4
20260507121549 17 238 0.0 3.2 0.00 0.66 0.00 95 1011.3
20260507120051 17 234 0.0 1.6 0.00 0.66 0.00 95 1010.2
20260507114540 17 0 0.0 1.6 0.00 0.66 0.00 95 1009.9
20260507113122 17 163 0.0 1.6 0.00 0.66 0.00 95 1009.8
20260507111545 17 254 1.6 6.4 0.00 0.66 0.00 95 1010.1
20260507110048 17 0 0.0 1.6 0.00 0.66 0.00 95 1009.7
20260507104559 17 0 0.0 0.0 0.00 0.66 0.00 95 1009.9
20260507103049 17 0 0.0 0.0 0.00 0.66 0.00 95 1009.9
20260507101544 17 0 0.0 0.0 0.00 0.66 0.00 95 1009.8
20260507100054 17 0 0.0 1.6 0.00 0.66 0.00 95 1009.9
20260507094543 17 0 0.0 1.6 0.00 0.66 0.00 95 1009.5
20260507093050 17 0 0.0 1.6 0.00 0.66 0.00 95 1009.8
20260507091550 17 0 0.0 4.8 0.00 0.66 0.00 95 1010.0
20260507090047 17 146 0.0 4.8 0.00 0.66 0.00 95 1009.6